Alexandria Esle, LA

3:43 PM CDT on August 18, 2017 (GMT -0500)
Alexandria Esler Regional

Weather History for KESF - October, 2012

Change the Weather History Date:

Sunday, October 7, 2012

  Actual Average Record
Temperature  
Mean Temperature 58 °F -  
Max Temperature 64 °F 78 °F 95 °F (2015)
Min Temperature 51 °F 56 °F 37 °F (1964)
Degree Days  
Heating Degree Days 8    
Growing Degree Days 8 (Base 50)    
Moisture  
Dew Point 46 °F    
Average Humidity 71    
Maximum Humidity 83    
Minimum Humidity 52    
Precipitation  
Precipitation 0.00 in - - ()
Sea Level Pressure  
Sea Level Pressure 30.16 in    
Wind  
Wind Speed 5 mph (NNE)    
Max Wind Speed 9 mph    
Max Gust Speed -    
Visibility 10 miles    
Events      
Averages and records for this station are not official NWS values.
T = Trace of Precipitation, MM = Missing Value Source: NWS Daily Summary

Daily Weather History Graph

Daily Weather History Graph

Search for Another Location

Airport or City:

Trip Planner

Search our weather history database for the weather conditions in past years. The results will help you decide how hot, cold, wet, or windy it might be!

Date:

Astronomy

Oct. 07, 2012 Rise Set
Actual Time 7:07 AM CDT 6:46 PM CDT
Civil Twilight 6:42 AM CDT 7:10 PM CDT
Nautical Twilight 6:14 AM CDT 7:38 PM CDT
Astronomical Twilight 5:46 AM CDT 8:06 PM CDT
Moon No Moon Rise 1:29 PM CDT (10/7)
Length of Visible Light 12h 27m
Length of Day
11h 39m
Waning Gibbous, 56% of the Moon is Illuminated
Oct 7
Waning Gibbous
Oct 8
Last Quarter
Oct 15
New
Oct 21
First Quarter
Oct 29
Full

Hourly Weather History & Observations

Time (CDT) Temp. Dew Point Humidity Pressure Visibility Wind Dir Wind Speed Gust Speed Precip Events Conditions
12:07 AM 53.6 °F 46.4 °F 77% 30.14 in 10.0 mi Variable 4.6 mph - N/A   Overcast
12:53 AM 52.0 °F 46.0 °F 80% 30.14 in 10.0 mi Variable 6.9 mph - N/A   Overcast
1:20 AM 51.8 °F 46.4 °F 82% 30.15 in 10.0 mi Variable 6.9 mph - N/A   Overcast
1:53 AM 52.0 °F 46.0 °F 80% 30.15 in 10.0 mi Variable 6.9 mph - N/A   Overcast
2:53 AM 52.0 °F 45.0 °F 77% 30.15 in 10.0 mi North 8.1 mph - N/A   Overcast
3:53 AM 51.1 °F 46.0 °F 83% 30.16 in 10.0 mi Variable 3.5 mph - N/A   Overcast
4:53 AM 51.1 °F 45.0 °F 80% 30.17 in 10.0 mi Variable 4.6 mph - N/A   Overcast
5:08 AM 51.8 °F 44.6 °F 76% 30.16 in 10.0 mi Variable 4.6 mph - N/A   Overcast
5:53 AM 51.1 °F 44.1 °F 77% 30.17 in 10.0 mi North 4.6 mph - N/A   Overcast
6:30 AM 51.8 °F 44.6 °F 76% 30.17 in 10.0 mi Variable 3.5 mph - N/A   Overcast
6:53 AM 51.1 °F 45.0 °F 80% 30.18 in 10.0 mi Variable 3.5 mph - N/A   Overcast
7:30 AM 51.8 °F 44.6 °F 76% 30.19 in 10.0 mi Variable 5.8 mph - N/A   Overcast
7:53 AM 51.1 °F 44.1 °F 77% 30.20 in 10.0 mi North 8.1 mph - N/A   Overcast
8:53 AM 51.1 °F 43.0 °F 74% 30.22 in 10.0 mi Variable 6.9 mph - N/A   Overcast
9:53 AM 53.1 °F 44.1 °F 71% 30.23 in 10.0 mi Variable 6.9 mph - N/A   Overcast
10:53 AM 55.0 °F 45.0 °F 69% 30.22 in 10.0 mi North 8.1 mph - N/A   Overcast
11:53 AM 55.9 °F 45.0 °F 67% 30.22 in 10.0 mi North 8.1 mph - N/A   Overcast
12:53 PM 60.1 °F 46.0 °F 60% 30.18 in 10.0 mi Variable 6.9 mph - N/A   Overcast
1:53 PM 63.0 °F 46.9 °F 56% 30.16 in 10.0 mi NNE 6.9 mph - N/A   Mostly Cloudy
2:41 PM 64.4 °F 46.4 °F 52% 30.14 in 10.0 mi Variable 6.9 mph - N/A   Mostly Cloudy
2:53 PM 63.0 °F 46.9 °F 56% 30.13 in 10.0 mi NNE 8.1 mph - N/A   Mostly Cloudy
3:53 PM 63.0 °F 46.9 °F 56% 30.13 in 10.0 mi North 6.9 mph - N/A   Mostly Cloudy
4:05 PM 62.6 °F 46.4 °F 55% 30.12 in 10.0 mi ENE 8.1 mph - N/A   Scattered Clouds
4:14 PM 64.4 °F 48.2 °F 56% 30.12 in 10.0 mi NNE 9.2 mph - N/A   Mostly Cloudy
4:45 PM 62.6 °F 46.4 °F 55% 30.12 in 10.0 mi NNE 5.8 mph - N/A   Overcast
4:53 PM 61.0 °F 46.9 °F 60% 30.12 in 10.0 mi Variable 3.5 mph - N/A   Overcast
5:53 PM 61.0 °F 46.9 °F 60% 30.12 in 10.0 mi Variable 4.6 mph - N/A   Mostly Cloudy
6:53 PM 57.0 °F 48.0 °F 72% 30.13 in 10.0 mi Calm Calm - N/A   Clear
7:53 PM 54.0 °F 48.9 °F 83% 30.13 in 10.0 mi Calm Calm - N/A   Clear
8:53 PM 55.0 °F 48.9 °F 80% 30.16 in 10.0 mi Calm Calm - N/A   Mostly Cloudy
9:53 PM 54.0 °F 48.9 °F 83% 30.16 in 10.0 mi Calm Calm - N/A   Scattered Clouds
10:53 PM 54.0 °F 48.0 °F 80% 30.16 in 10.0 mi Calm Calm - N/A   Overcast
11:53 PM 53.1 °F 46.0 °F 77% 30.16 in 10.0 mi Calm Calm - N/A   Partly Cloudy